Content
SEND FEEDBACK

Daily
Averages
Monthly
Summary
United States of America

TELLURIDE, COLORADO


Home > North America > United States > Colorado
Elevation: 9813 feet     Latitude: 37 57N     Longitude: 107 49W

WEATHER
 
SELECT A DAY
Number of Records: 308,767;   Date Range: 1/1/95 - 12/16/14
 
SHARE

PRINT THIS DATA

[ ← Previous Day ]
WEATHER ALMANAC - NOVEMBER 12, 2013
[ Next Day → ]
[ °C ]   °F
Weather ElementAverageHighLow
Temperature41 °F55.4 °F (1:15 pm)32 °F (1:15 am)
Dewpoint16.2 °F19.4 °F (8:35 am)8.6 °F (2:15 pm)
Humidity39.7 %60 % (11:35 pm)15 % (2:35 pm)
Barometer30.59 in30.64 in (8:35 am)30.56 in (12:35 am)
Wind Speed6 mph16.1 mph (3:15 pm)
Wind Gust20.7 mph (3:35 pm)
Weather ElementAverage
Visibility10 mi
Wind DirectionSSE (146.8 °)

Weather ElementTotal
Precipitation---
Heating Degree Days21.3 (Base 65)
Averaged from 71 records on November 12, 2013
WEATHER CONDITIONS BREAKOUT
WIND DIRECTION BREAKOUT
WEATHER BY HOUR - NOVEMBER 12, 2013
[ °C ]   °F
Local TimeTemperatureDewpointHumidityBarometerVisibilityWind DirectionWind SpeedGust SpeedPrecipitationEventsConditions
12:35 AM33.8 °F17.6 °F52 %30.56 in10.0 miSE (130°)5.8 mphClear
12:55 AM33.8 °F15.8 °F48 %30.56 in10.0 miESE (120°)5.8 mphClear
1:15 AM32.0 °F17.6 °F55 %30.56 in10.0 miSE (130°)8.1 mphClear
1:35 AM33.8 °F17.6 °F52 %30.56 in10.0 miSE (130°)8.1 mphClear
1:55 AM33.8 °F17.6 °F52 %30.57 in10.0 miEast (100°)6.9 mphClear
2:15 AM33.8 °F15.8 °F48 %30.57 in10.0 miCalmClear
2:35 AM33.8 °F17.6 °F52 %30.58 in10.0 miESE (110°)4.6 mphClear
2:55 AM33.8 °F17.6 °F52 %30.57 in10.0 miSE (130°)5.8 mphClear
3:15 AM32.0 °F15.8 °F51 %30.58 in10.0 miSE (140°)5.8 mphClear
3:35 AM33.8 °F15.8 °F48 %30.58 in10.0 miSE (140°)5.8 mphClear
3:55 AM32.0 °F17.6 °F55 %30.58 in10.0 miESE (110°)6.9 mphClear
4:15 AM32.0 °F17.6 °F55 %30.58 in10.0 miESE (120°)5.8 mphClear
4:35 AM32.0 °F17.6 °F55 %30.59 in10.0 miESE (110°)8.1 mphClear
4:55 AM33.8 °F15.8 °F48 %30.60 in10.0 miESE (120°)6.9 mphClear
5:15 AM32.0 °F17.6 °F55 %30.60 in10.0 miESE (120°)6.9 mphClear
5:35 AM33.8 °F14.0 °F44 %30.62 in10.0 miESE (120°)4.6 mphClear
5:55 AM33.8 °F15.8 °F48 %30.62 in10.0 miESE (120°)6.9 mphClear
6:15 AM32.0 °F15.8 °F51 %30.62 in10.0 miSE (130°)8.1 mphClear
6:35 AM32.0 °F17.6 °F55 %30.62 in10.0 miESE (120°)6.9 mphClear
6:55 AM32.0 °F15.8 °F51 %30.62 in10.0 miESE (120°)5.8 mphClear
7:15 AM33.8 °F15.8 °F48 %30.62 in10.0 miESE (120°)6.9 mphClear
7:35 AM33.8 °F15.8 °F48 %30.63 in10.0 miSE (130°)6.9 mphClear
7:55 AM35.6 °F17.6 °F48 %30.63 in10.0 miESE (110°)4.6 mphClear
8:15 AM37.4 °F15.8 °F41 %30.63 in10.0 miESE (120°)5.8 mphClear
8:35 AM39.2 °F19.4 °F45 %30.64 in10.0 miESE (110°)4.6 mphClear
8:55 AM41.0 °F17.6 °F39 %30.64 in10.0 miESE (120°)3.5 mphClear
9:15 AM42.8 °F17.6 °F36 %30.64 in10.0 miEast (100°)3.5 mphClear
9:35 AM44.6 °F15.8 °F31 %30.64 in10.0 miCalmClear
9:55 AM44.6 °F15.8 °F31 %30.64 in10.0 miCalmClear
10:15 AM46.4 °F14.0 °F27 %30.64 in10.0 miCalmClear
10:35 AM48.2 °F14.0 °F25 %30.64 in10.0 miCalmClear
10:55 AM50.0 °F14.0 °F24 %30.64 in10.0 miCalmClear
11:15 AM51.8 °F12.2 °F21 %30.63 in10.0 miWNW (290°)3.5 mphClear
11:35 AM53.6 °F14.0 °F21 %30.62 in10.0 miWest (280°)5.8 mphClear
11:55 AM53.6 °F12.2 °F19 %30.61 in10.0 miWest (270°)5.8 mphClear
12:15 PM53.6 °F12.2 °F19 %30.60 in10.0 miWest (280°)5.8 mphClear
12:35 PM53.6 °F10.4 °F18 %30.59 in10.0 miWest (280°)5.8 mphClear
12:55 PM53.6 °F10.4 °F18 %30.58 in10.0 miWest (270°)6.9 mphClear
1:15 PM55.4 °F10.4 °F17 %30.57 in10.0 miWest (260°)5.8 mphClear
1:35 PM53.6 °F10.4 °F18 %30.57 in10.0 miWest (280°)6.9 mphClear
1:55 PM55.4 °F10.4 °F17 %30.57 in10.0 miWest (270°)8.1 mphClear
2:15 PM53.6 °F8.6 °F16 %30.56 in10.0 miWest (260°)6.9 mphClear
2:35 PM55.4 °F8.6 °F15 %30.56 in10.0 miWest (270°)9.2 mphClear
2:55 PM55.4 °F8.6 °F15 %30.56 in10.0 miWest (270°)8.1 mphClear
3:15 PM53.6 °F15.8 °F22 %30.56 in10.0 miWest (260°)16.1 mphClear
3:35 PM51.8 °F15.8 °F24 %30.56 in10.0 miWest (270°)15.0 mph20.7 mphClear
3:55 PM51.8 °F15.8 °F24 %30.56 in10.0 miWest (260°)16.1 mph20.7 mphClear
4:15 PM50.0 °F15.8 °F26 %30.56 in10.0 miWest (260°)11.5 mph19.6 mphClear
4:35 PM50.0 °F17.6 °F28 %30.56 in10.0 miWest (260°)9.2 mph17.3 mphClear
4:55 PM46.4 °F17.6 °F32 %30.56 in10.0 miWest (270°)10.4 mphClear
5:15 PM46.4 °F15.8 °F29 %30.57 in10.0 miWest (260°)10.4 mphClear
5:35 PM44.6 °F14.0 °F29 %30.58 in10.0 miSW (230°)3.5 mphClear
5:55 PM44.6 °F15.8 °F31 %30.58 in10.0 miCalmClear
6:15 PM42.8 °F17.6 °F36 %30.59 in10.0 miEast (90°)3.5 mphClear
6:35 PM41.0 °F19.4 °F42 %30.60 in10.0 miEast (100°)6.9 mphClear
6:55 PM41.0 °F19.4 °F42 %30.60 in10.0 miESE (110°)6.9 mphClear
7:15 PM41.0 °F19.4 °F42 %30.60 in10.0 miESE (120°)6.9 mphClear
7:35 PM39.2 °F19.4 °F45 %30.59 in10.0 miSE (130°)4.6 mphClear
7:55 PM39.2 °F19.4 °F45 %30.60 in10.0 miSE (140°)3.5 mphClear
8:15 PM37.4 °F19.4 °F48 %30.60 in10.0 miCalmClear
8:35 PM37.4 °F19.4 °F48 %30.59 in10.0 miCalmClear
8:55 PM35.6 °F19.4 °F52 %30.59 in10.0 miSE (130°)8.1 mphClear
9:15 PM35.6 °F19.4 °F52 %30.59 in10.0 miESE (120°)8.1 mphClear
9:35 PM35.6 °F19.4 °F52 %30.59 in10.0 miSE (130°)6.9 mphClear
9:55 PM35.6 °F19.4 °F52 %30.59 in10.0 miESE (120°)5.8 mphClear
10:15 PM35.6 °F19.4 °F52 %30.59 in10.0 miESE (120°)5.8 mphClear
10:35 PM33.8 °F19.4 °F56 %30.58 in10.0 miESE (120°)5.8 mphClear
10:55 PM33.8 °F19.4 °F56 %30.58 in10.0 miSE (140°)6.9 mphClear
11:15 PM33.8 °F19.4 °F56 %30.58 in10.0 miESE (120°)6.9 mphClear
11:35 PM32.0 °F19.4 °F60 %30.58 in10.0 miESE (110°)5.8 mphClear
11:55 PM33.8 °F19.4 °F56 %30.58 in10.0 miSE (140°)4.6 mphClear
Hourly data recorded from KTEX, located miles away from Telluride, Colorado







STORIES FROM OUR PARTNERS